TimeCDT,TemperatureF,Dew PointF,Humidity,Sea Level PressureIn,VisibilityMPH,Wind Direction,Wind SpeedMPH,Gust SpeedMPH,PrecipitationIn,Events,Conditions,WindDirDegrees,DateUTC
12:53 AM,34.0,26.1,73,30.12,10.0,NNW,9.2,-,N/A,,Clear,330,2014-03-13 05:53:00
1:53 AM,33.1,25.0,72,30.13,10.0,NNW,5.8,-,N/A,,Clear,330,2014-03-13 06:53:00
2:53 AM,32.0,23.0,69,30.13,10.0,NW,5.8,-,N/A,,Clear,310,2014-03-13 07:53:00
3:53 AM,30.9,21.9,69,30.13,10.0,NW,6.9,-,N/A,,Clear,320,2014-03-13 08:53:00
4:53 AM,30.9,21.9,69,30.15,10.0,NW,6.9,-,N/A,,Clear,320,2014-03-13 09:53:00
5:53 AM,30.0,21.9,72,30.17,10.0,NW,4.6,-,N/A,,Clear,310,2014-03-13 10:53:00
6:53 AM,30.0,21.9,72,30.21,10.0,NW,4.6,-,N/A,,Clear,320,2014-03-13 11:53:00
7:53 AM,32.0,23.0,69,30.25,10.0,NNW,5.8,-,N/A,,Clear,330,2014-03-13 12:53:00
8:53 AM,34.0,23.0,64,30.27,10.0,NNW,6.9,-,N/A,,Partly Cloudy,340,2014-03-13 13:53:00
9:53 AM,37.0,18.0,46,30.29,10.0,NNE,6.9,-,N/A,,Partly Cloudy,30,2014-03-13 14:53:00
10:53 AM,39.9,19.0,43,30.29,10.0,NNE,6.9,-,N/A,,Clear,30,2014-03-13 15:53:00
11:53 AM,41.0,18.0,40,30.29,10.0,East,4.6,-,N/A,,Clear,90,2014-03-13 16:53:00
12:53 PM,44.1,18.0,35,30.26,10.0,Calm,Calm,-,N/A,,Clear,0,2014-03-13 17:53:00
1:53 PM,50.0,19.0,29,30.23,10.0,Variable,3.5,-,N/A,,Clear,0,2014-03-13 18:53:00
2:53 PM,50.0,18.0,28,30.22,10.0,WNW,8.1,-,N/A,,Clear,290,2014-03-13 19:53:00
3:53 PM,51.1,17.1,26,30.21,10.0,NW,4.6,-,N/A,,Clear,310,2014-03-13 20:53:00
4:53 PM,53.1,17.1,24,30.19,10.0,Calm,Calm,-,N/A,,Clear,0,2014-03-13 21:53:00
5:53 PM,52.0,19.9,28,30.19,10.0,SSE,4.6,-,N/A,,Clear,150,2014-03-13 22:53:00
6:53 PM,46.9,21.0,36,30.19,10.0,East,8.1,-,N/A,,Clear,100,2014-03-13 23:53:00
7:53 PM,45.0,21.0,39,30.19,10.0,SE,6.9,-,N/A,,Clear,140,2014-03-14 00:53:00
8:53 PM,43.0,21.0,42,30.20,10.0,SSE,3.5,-,N/A,,Clear,150,2014-03-14 01:53:00
9:53 PM,39.9,24.1,53,30.19,10.0,South,4.6,-,N/A,,Clear,180,2014-03-14 02:53:00
10:53 PM,39.9,25.0,55,30.18,10.0,South,8.1,-,N/A,,Clear,170,2014-03-14 03:53:00
11:53 PM,39.0,25.0,57,30.17,10.0,South,6.9,-,N/A,,Clear,180,2014-03-14 04:53:00